User: anonymous   Login
Location: Bathurst
(33.4193°S, 149.5775°E)
Time: 16:45:57
(UTC+10:00)
Language:

Vanguard 2 - Orbit

View from above orbital plane
View from above orbital plane
View from above satellite
View from above satellite

Ground track
Ground track

The orbit data is extracted from the following two-line orbital elements,

1 00011U 59001A   21165.33440732  .00000039  00000-0  17505-4 0  9992
2 00011  32.8646 136.6094 1467946 134.5865 238.4334 11.85801311317941
Epoch (UTC): 14 June 2021 08:01:32
Eccentricity: 0.1467946
inclination: 32.8646°
perigee height: 552 km
apogee height: 2937 km
right ascension of ascending node: 136.6094°
argument of perigee: 134.5865°
revolutions per day: 11.85801311
mean anomaly at epoch: 238.4334°
orbit number at epoch: 31794

The dashed part of the orbit path shows where the satellite is in the earth's shadow,  

DLR